Change the Weather History Date:

Saturday, February 15, 2014

  Actual Average Record
Temperature  
Mean Temperature 44 °F -  
Max Temperature 57 °F 47 °F 57 °F (2014)
Min Temperature 30 °F 25 °F 15 °F (2015)
Degree Days  
Heating Degree Days 22    
Moisture  
Dew Point 29 °F    
Average Humidity 63    
Maximum Humidity 80    
Minimum Humidity 44    
Precipitation  
Precipitation 0.00 in - - ()
Sea Level Pressure  
Sea Level Pressure 29.95 in    
Wind  
Wind Speed 12 mph (WSW)    
Max Wind Speed 22 mph    
Max Gust Speed 30 mph    
Visibility 10 miles    
Events      
Averages and records for this station are not official NWS values.
T = Trace of Precipitation, MM = Missing Value Source: NWS Daily Summary

Daily Weather History Graph

Daily Weather History Graph

Search for Another Location

Airport or City:

Trip Planner

Search our weather history database for the weather conditions in past years. The results will help you decide how hot, cold, wet, or windy it might be!

Date:

Astronomy

Feb. 15, 2014 Rise Set
Actual Time 7:25 AM CST 6:13 PM CST
Civil Twilight 6:58 AM CST 6:40 PM CST
Nautical Twilight 6:27 AM CST 7:11 PM CST
Astronomical Twilight 5:57 AM CST 7:42 PM CST
Moon 7:13 PM CST (2/15) 7:26 AM CST (2/15)
Length of Visible Light 11h 42m
Length of Day
10h 47m
Waxing Gibbous, 99% of the Moon is Illuminated
Feb 15
Waxing Gibbous
Feb 22
Last Quarter
Mar 1
New
Mar 8
First Quarter
Mar 16
Full

Hourly Weather History & Observations

Time (CST) Temp. Windchill Dew Point Humidity Pressure Visibility Wind Dir Wind Speed Gust Speed Precip Events Conditions
12:15 AM 33.8 °F 25.8 °F 26.6 °F 75% 30.03 in 10.0 mi South 10.4 mph - N/A   Mostly Cloudy
12:35 AM 33.8 °F 25.8 °F 26.6 °F 75% 30.02 in 10.0 mi South 10.4 mph - N/A   Overcast
12:55 AM 33.8 °F 26.4 °F 26.6 °F 75% 30.01 in 10.0 mi South 9.2 mph - N/A   Overcast
1:15 AM 33.8 °F 26.4 °F 26.6 °F 75% 30.01 in 10.0 mi South 9.2 mph - N/A   Overcast
1:35 AM 33.8 °F 26.4 °F 26.6 °F 75% 30.01 in 10.0 mi South 9.2 mph - N/A   Overcast
1:55 AM 33.8 °F 25.8 °F 26.6 °F 75% 29.99 in 10.0 mi SSE 10.4 mph - N/A   Overcast
2:15 AM 33.8 °F 25.8 °F 26.6 °F 75% 29.97 in 10.0 mi SSE 10.4 mph - N/A   Overcast
2:35 AM 32.0 °F 22.1 °F 26.6 °F 80% 29.96 in 10.0 mi South 13.8 mph - N/A   Partly Cloudy
2:55 AM 32.0 °F 23.0 °F 24.8 °F 75% 29.95 in 10.0 mi South 11.5 mph - N/A   Clear
3:15 AM 32.0 °F 22.1 °F 24.8 °F 75% 29.94 in 10.0 mi South 13.8 mph - N/A   Clear
3:35 AM 32.0 °F 22.1 °F 24.8 °F 75% 29.95 in 10.0 mi South 13.8 mph - N/A   Clear
3:55 AM 32.0 °F 22.1 °F 24.8 °F 75% 29.93 in 10.0 mi South 13.8 mph - N/A   Mostly Cloudy
4:15 AM 33.8 °F 24.8 °F 26.6 °F 75% 29.92 in 10.0 mi South 12.7 mph - N/A   Overcast
4:35 AM 33.8 °F 24.8 °F 26.6 °F 75% 29.92 in 10.0 mi South 12.7 mph - N/A   Overcast
4:55 AM 33.8 °F 23.9 °F 26.6 °F 75% 29.92 in 10.0 mi South 15.0 mph - N/A   Mostly Cloudy
5:15 AM 33.8 °F 23.5 °F 26.6 °F 75% 29.92 in 10.0 mi South 16.1 mph - N/A   Mostly Cloudy
5:35 AM 33.8 °F 23.2 °F 24.8 °F 70% 29.90 in 10.0 mi South 17.3 mph - N/A   Overcast
5:55 AM 33.8 °F 23.9 °F 24.8 °F 70% 29.91 in 10.0 mi South 15.0 mph 19.6 mph N/A   Overcast
6:15 AM 32.0 °F 21.2 °F 24.8 °F 75% 29.89 in 10.0 mi South 16.1 mph - N/A   Mostly Cloudy
6:35 AM 32.0 °F 20.5 °F 24.8 °F 75% 29.88 in 10.0 mi South 18.4 mph 25.3 mph N/A   Overcast
6:55 AM 32.0 °F 19.8 °F 24.8 °F 75% 29.87 in 10.0 mi South 20.7 mph - N/A   Overcast
7:15 AM 30.2 °F 17.4 °F 24.8 °F 80% 29.86 in 10.0 mi South 20.7 mph 25.3 mph N/A   Scattered Clouds
7:35 AM 30.2 °F 17.8 °F 24.8 °F 80% 29.85 in 10.0 mi South 19.6 mph 26.5 mph N/A   Scattered Clouds
7:55 AM 32.0 °F 20.1 °F 24.8 °F 75% 29.86 in 10.0 mi South 19.6 mph 25.3 mph N/A   Mostly Cloudy
8:15 AM 33.8 °F 22.2 °F 24.8 °F 70% 29.84 in 10.0 mi South 20.7 mph 29.9 mph N/A   Mostly Cloudy
8:35 AM 33.8 °F 22.2 °F 26.6 °F 75% 29.83 in 10.0 mi South 20.7 mph 28.8 mph N/A   Scattered Clouds
8:55 AM 35.6 °F 25.5 °F 26.6 °F 70% 29.83 in 10.0 mi SSW 17.3 mph - N/A   Partly Cloudy
9:15 AM 37.4 °F 27.2 °F 26.6 °F 65% 29.82 in 10.0 mi SSW 19.6 mph 24.2 mph N/A   Clear
9:35 AM 39.2 °F 29.0 °F 26.6 °F 61% 29.82 in 10.0 mi SSW 21.9 mph 26.5 mph N/A   Clear
9:55 AM 39.2 °F 29.3 °F 26.6 °F 61% 29.83 in 10.0 mi SSW 20.7 mph 26.5 mph N/A   Clear
10:15 AM 41.0 °F 33.1 °F 28.4 °F 61% 29.86 in 10.0 mi WSW 15.0 mph - N/A   Partly Cloudy
10:35 AM 42.8 °F 34.8 °F 28.4 °F 57% 29.84 in 10.0 mi SW 17.3 mph - N/A   Partly Cloudy
10:55 AM 44.6 °F 37.4 °F 28.4 °F 53% 29.85 in 10.0 mi SW 16.1 mph - N/A   Clear
11:15 AM 46.4 °F 40.1 °F 32.0 °F 57% 29.86 in 10.0 mi WSW 15.0 mph - N/A   Clear
11:35 AM 48.2 °F - 32.0 °F 54% 29.88 in 10.0 mi West 15.0 mph - N/A   Clear
11:55 AM 51.8 °F - 33.8 °F 50% 29.89 in 10.0 mi WNW 16.1 mph 23.0 mph N/A   Clear
12:15 PM 51.8 °F - 32.0 °F 47% 29.89 in 10.0 mi NW 15.0 mph 21.9 mph N/A   Clear
12:35 PM 51.8 °F - 33.8 °F 50% 29.89 in 10.0 mi NNW 15.0 mph 18.4 mph N/A   Clear
12:55 PM 51.8 °F - 32.0 °F 47% 29.87 in 10.0 mi North 15.0 mph 19.6 mph N/A   Partly Cloudy
1:15 PM 53.6 °F - 33.8 °F 47% 29.89 in 10.0 mi North 15.0 mph - N/A   Partly Cloudy
1:35 PM 53.6 °F - 33.8 °F 47% 29.90 in 10.0 mi North 13.8 mph - N/A   Clear
1:55 PM 55.4 °F - 33.8 °F 44% 29.91 in 10.0 mi North 17.3 mph 21.9 mph N/A   Clear
2:15 PM 55.4 °F - 33.8 °F 44% 29.91 in 10.0 mi North 15.0 mph - N/A   Clear
2:35 PM 55.4 °F - 33.8 °F 44% 29.92 in 10.0 mi NNW 18.4 mph 23.0 mph N/A   Clear
2:55 PM 55.4 °F - 35.6 °F 47% 29.92 in 10.0 mi North 10.4 mph 18.4 mph N/A   Clear
3:15 PM 57.2 °F - 35.6 °F 44% 29.93 in 10.0 mi NNW 9.2 mph - N/A   Clear
3:35 PM 57.2 °F - 35.6 °F 44% 29.94 in 10.0 mi NW 11.5 mph - N/A   Clear
3:55 PM 57.2 °F - 35.6 °F 44% 29.94 in 10.0 mi NW 15.0 mph - N/A   Clear
4:15 PM 57.2 °F - 35.6 °F 44% 29.95 in 10.0 mi NNW 11.5 mph - N/A   Clear
4:35 PM 57.2 °F - 35.6 °F 44% 29.96 in 10.0 mi NNW 9.2 mph - N/A   Clear
4:55 PM 57.2 °F - 35.6 °F 44% 29.96 in 10.0 mi NNW 8.1 mph - N/A   Clear
5:15 PM 57.2 °F - 35.6 °F 44% 29.97 in 10.0 mi NW 6.9 mph - N/A   Clear
5:35 PM 55.4 °F - 35.6 °F 47% 29.98 in 10.0 mi NNW 8.1 mph - N/A   Clear
5:55 PM 53.6 °F - 33.8 °F 47% 30.00 in 10.0 mi NNW 8.1 mph - N/A   Clear
6:15 PM 50.0 °F - 32.0 °F 50% 30.00 in 10.0 mi NNW 6.9 mph - N/A   Clear
6:35 PM 46.4 °F 42.9 °F 30.2 °F 53% 30.01 in 10.0 mi NNW 6.9 mph - N/A   Clear
6:55 PM 42.8 °F 38.0 °F 30.2 °F 61% 30.02 in 10.0 mi NNW 8.1 mph - N/A   Clear
7:15 PM 42.8 °F 38.0 °F 28.4 °F 57% 30.03 in 10.0 mi NW 8.1 mph - N/A   Clear
7:35 PM 42.8 °F 37.5 °F 30.2 °F 61% 30.04 in 10.0 mi NW 9.2 mph - N/A   Clear
7:55 PM 39.2 °F 33.0 °F 28.4 °F 65% 30.05 in 10.0 mi NNW 9.2 mph - N/A   Clear
8:15 PM 41.0 °F 36.4 °F 30.2 °F 65% 30.06 in 10.0 mi NNW 6.9 mph - N/A   Clear
8:35 PM 37.4 °F 31.4 °F 28.4 °F 70% 30.05 in 10.0 mi NNW 8.1 mph - N/A   Clear
8:55 PM 39.2 °F 33.6 °F 28.4 °F 65% 30.06 in 10.0 mi North 8.1 mph - N/A   Clear
9:15 PM 39.2 °F 33.6 °F 28.4 °F 65% 30.07 in 10.0 mi North 8.1 mph - N/A   Clear
9:35 PM 39.2 °F - 28.4 °F 65% 30.08 in 10.0 mi Calm Calm - N/A   Clear
9:55 PM 33.8 °F 30.8 °F 24.8 °F 70% 30.07 in 10.0 mi NNW 3.5 mph - N/A   Clear
10:15 PM 35.6 °F - 26.6 °F 70% 30.08 in 10.0 mi Calm Calm - N/A   Clear
10:35 PM 33.8 °F 29.6 °F 24.8 °F 70% 30.08 in 10.0 mi West 4.6 mph - N/A   Clear
10:55 PM 33.8 °F 29.6 °F 26.6 °F 75% 30.09 in 10.0 mi WSW 4.6 mph - N/A   Clear
11:15 PM 32.0 °F 24.8 °F 26.6 °F 80% 30.10 in 10.0 mi WSW 8.1 mph - N/A   Clear
11:35 PM 32.0 °F 25.6 °F 26.6 °F 80% 30.09 in 10.0 mi West 6.9 mph - N/A   Clear
11:55 PM 32.0 °F 26.4 °F 24.8 °F 75% 30.10 in 10.0 mi West 5.8 mph - N/A   Clear